Volver al catálogo

COSMOS 2135

ActivoNavegaciónPO
NORAD 21130·PAYLOAD·🇷🇺 Russia

Lanzado Feb 26, 1991 desde Plesetsk Cosmodrome

Loading…

Próximos Pases (próximas 24 horas)

TLE

ActualizadoSource: Space-Track

Época: Sep 14, 2026, 03:00 UTC

1 21130U 91013A   26257.12502826  .00000059  00000-0  43527-4 0  9998
2 21130  82.8303 149.2935 0064857 313.9832  45.5988 13.78808247788274

Sigue COSMOS 2135 en tiempo real con AllMySat

Download on the App Store